Location: Miles
(41.4492°N, 81.6087°W)
Time: 16:04:40
(UTC+00:00)

S-56A Canister/Altair - Pass Details

Date: 24 September 2024
Orbit: 636 x 2487 km, 38.9° (Epoch: 12 October)

Event Time Altitude Azimuth Distance (km) Brightness Sun altitude
Rises 03:00:52 0° 275° (W) 3,544 11.5 -38.7°
Reaches altitude 10° 03:03:29 10° 263° (W) 2,806 10.7 -39.1°
Enters shadow 03:05:46 20° 246° (WSW) 2,345 10.1 -39.4°
